This is the latest recevied weather packets stored in our database for station/object DH0GMA. If no packets are shown the sender has not sent any weather packets the latest 10 day(s).
| Time | Temp. | Humidity | Pressure | Rain* | Wind** | Luminosity | Snow |
|---|---|---|---|---|---|---|---|
| 1777751103 | 18.33° C | 45% | 1016.7 hPa | 0 mm | - | - | - |
| 1777750502 | 18.33° C | 44% | 1016.7 hPa | 0 mm | - | - | - |
| 1777749902 | 18.89° C | 44% | 1016.5 hPa | 0 mm | - | - | - |
| 1777749302 | 19.44° C | 43% | 1016.6 hPa | 0 mm | - | - | - |
| 1777748703 | 19.44° C | 43% | 1016.6 hPa | 0 mm | - | - | - |
| 1777748103 | 20° C | 41% | 1016.5 hPa | 0 mm | - | - | - |
| 1777747503 | 20.56° C | 40% | 1016.4 hPa | 0 mm | - | - | - |
| 1777746903 | 21.11° C | 39% | 1016.4 hPa | 0 mm | - | - | - |
| 1777746303 | 21.67° C | 37% | 1016.3 hPa | 0 mm | - | - | - |
| 1777745702 | 21.67° C | 36% | 1016.3 hPa | 0 mm | - | - | - |
| 1777745102 | 22.22° C | 35% | 1016.3 hPa | 0 mm | - | - | - |
| 1777744503 | 22.78° C | 34% | 1016.2 hPa | 0 mm | - | - | - |
| 1777743903 | 23.33° C | 32% | 1016.3 hPa | 0 mm | - | - | - |
| 1777743302 | 23.89° C | 31% | 1016.3 hPa | 0 mm | - | - | - |
| 1777742702 | 24.44° C | 30% | 1016.4 hPa | 0 mm | - | - | - |
| 1777742102 | 24.44° C | 28% | 1016.4 hPa | 0 mm | - | - | - |
| 1777741504 | 25° C | 28% | 1016.5 hPa | 0 mm | - | - | - |
| 1777740903 | 24.44° C | 30% | 1016.5 hPa | 0 mm | - | - | - |
| 1777740303 | 24.44° C | 30% | 1016.6 hPa | 0 mm | - | - | - |
| 1777739703 | 25° C | 32% | 1016.7 hPa | 0 mm | - | - | - |
| 1777739102 | 25° C | 30% | 1016.9 hPa | 0 mm | - | - | - |
| 1777738502 | 25° C | 31% | 1017.1 hPa | 0 mm | - | - | - |
| 1777737902 | 25° C | 31% | 1017.1 hPa | 0 mm | - | - | - |
| 1777737304 | 25° C | 32% | 1017.2 hPa | 0 mm | - | - | - |
| 1777736704 | 25.56° C | 32% | 1017.3 hPa | 0 mm | - | - | - |
* Rain latest hour (hover to see other rain measurements)
** Current wind speed in m/s (hover to see current wind gust speed)